Coolidge Muni, Coolidge, AZ

3:10 AM MST on July 28, 2017 (GMT -0700)
Coolidge Muni, Coolidge

Weather History for KP08 - March, 2014

Change the Weather History Date:

Saturday, March 8, 2014

  Actual Average (KCGZ) Record (KCGZ)
Temperature  
Mean Temperature 64 °F -  
Max Temperature 77 °F 70 °F 86 °F (2004)
Min Temperature 50 °F 43 °F 33 °F (1998)
Degree Days  
Heating Degree Days 2    
Growing Degree Days 14 (Base 50)    
Moisture  
Dew Point 32 °F    
Average Humidity 34    
Maximum Humidity 71    
Minimum Humidity 12    
Precipitation  
Precipitation 0.00 in - - ()
Sea Level Pressure  
Sea Level Pressure 30.02 in    
Wind  
Wind Speed 8 mph (ENE)    
Max Wind Speed 15 mph    
Max Gust Speed 24 mph    
Visibility 10 miles    
Events      
Averages and records for this station are not official NWS values.
T = Trace of Precipitation, MM = Missing Value Source: NWS Daily Summary

Daily Weather History Graph

Daily Weather History Graph

Search for Another Location

Airport or City:

Trip Planner

Search our weather history database for the weather conditions in past years. The results will help you decide how hot, cold, wet, or windy it might be!

Date:

Astronomy

Mar. 08, 2014 Rise Set
Actual Time 6:44 AM MST 6:28 PM MST
Civil Twilight 6:20 AM MST 6:53 PM MST
Nautical Twilight 5:51 AM MST 7:21 PM MST
Astronomical Twilight 5:23 AM MST 7:50 PM MST
Moon 11:48 AM MST (3/8) 1:10 AM MST (3/8)
Length of Visible Light 12h 32m
Length of Day
11h 43m
First Quarter, 52% of the Moon is Illuminated
Mar 8
First Quarter
Mar 16
Full
Mar 23
Last Quarter
Mar 30
New
Apr 7
First Quarter

Hourly Weather History & Observations

Time (MST) Temp. Dew Point Humidity Pressure Visibility Wind Dir Wind Speed Gust Speed Precip Events Conditions
12:15 AM 59.0 °F 39.2 °F 48% 29.90 in 10.0 mi SSW 8.1 mph - N/A   Clear
12:35 AM 59.0 °F 35.6 °F 42% 29.91 in 10.0 mi SW 5.8 mph - N/A   Clear
12:55 AM 60.8 °F 35.6 °F 39% 29.91 in 10.0 mi Calm Calm - N/A   Clear
1:15 AM 57.2 °F 39.2 °F 51% 29.92 in 10.0 mi SSE 5.8 mph - N/A   Clear
1:35 AM 57.2 °F 37.4 °F 48% 29.92 in 10.0 mi SSE 5.8 mph - N/A   Partly Cloudy
1:55 AM 59.0 °F 35.6 °F 42% 29.91 in 10.0 mi South 8.1 mph - N/A   Clear
2:15 AM 59.0 °F 37.4 °F 45% 29.92 in 10.0 mi South 8.1 mph - N/A   Clear
2:35 AM 53.6 °F 39.2 °F 58% 29.92 in 10.0 mi SSE 5.8 mph - N/A   Clear
2:55 AM 53.6 °F 39.2 °F 58% 29.93 in 10.0 mi SE 6.9 mph - N/A   Clear
3:15 AM 53.6 °F 41.0 °F 62% 29.94 in 10.0 mi ESE 6.9 mph - N/A   Clear
3:35 AM 51.8 °F 41.0 °F 67% 29.95 in 10.0 mi ENE 8.1 mph - N/A   Clear
3:55 AM 51.8 °F 41.0 °F 67% 29.95 in 10.0 mi ESE 6.9 mph - N/A   Clear
4:15 AM 51.8 °F 41.0 °F 67% 29.96 in 10.0 mi ESE 6.9 mph - N/A   Clear
4:35 AM 51.8 °F 41.0 °F 67% 29.96 in 10.0 mi East 8.1 mph - N/A   Clear
4:55 AM 51.8 °F 41.0 °F 67% 29.96 in 10.0 mi ESE 9.2 mph - N/A   Partly Cloudy
5:15 AM 51.8 °F 41.0 °F 67% 29.97 in 10.0 mi ESE 6.9 mph - N/A   Clear
5:35 AM 50.0 °F 41.0 °F 71% 29.98 in 10.0 mi ESE 8.1 mph - N/A   Clear
5:55 AM 50.0 °F 39.2 °F 66% 29.98 in 10.0 mi ESE 9.2 mph - N/A   Clear
6:15 AM 50.0 °F 39.2 °F 66% 29.99 in 10.0 mi ESE 9.2 mph - N/A   Clear
6:35 AM 51.8 °F 37.4 °F 58% 30.00 in 10.0 mi ESE 9.2 mph - N/A   Partly Cloudy
6:55 AM 51.8 °F 37.4 °F 58% 30.00 in 10.0 mi ESE 8.1 mph - N/A   Clear
7:15 AM 53.6 °F 39.2 °F 58% 30.01 in 10.0 mi ESE 8.1 mph - N/A   Clear
7:35 AM 55.4 °F 39.2 °F 54% 30.02 in 10.0 mi ESE 8.1 mph - N/A   Clear
7:55 AM 57.2 °F 41.0 °F 55% 30.03 in 10.0 mi East 6.9 mph - N/A   Clear
8:15 AM 59.0 °F 41.0 °F 51% 30.04 in 10.0 mi Calm Calm - N/A   Clear
8:35 AM 60.8 °F 41.0 °F 48% 30.04 in 10.0 mi Calm Calm - N/A   Clear
8:55 AM 62.6 °F 41.0 °F 45% 30.05 in 10.0 mi Calm Calm - N/A   Clear
9:15 AM 64.4 °F 39.2 °F 40% 30.06 in 10.0 mi Calm Calm - N/A   Clear
9:35 AM 66.2 °F 41.0 °F 40% 30.06 in 10.0 mi Calm Calm - N/A   Clear
9:55 AM 66.2 °F 41.0 °F 40% 30.07 in 10.0 mi NW 4.6 mph - N/A   Clear
10:15 AM 68.0 °F 39.2 °F 35% 30.07 in 10.0 mi NW 5.8 mph - N/A   Clear
10:35 AM 69.8 °F 35.6 °F 28% 30.07 in 10.0 mi NNW 6.9 mph - N/A   Clear
10:55 AM 71.6 °F 30.2 °F 22% 30.07 in 10.0 mi North - - N/A   Clear
11:15 AM 71.6 °F 30.2 °F 22% 30.07 in 10.0 mi NNE 8.1 mph - N/A   Clear
11:35 AM 73.4 °F 30.2 °F 20% 30.06 in 10.0 mi Variable 6.9 mph - N/A   Clear
11:55 AM 73.4 °F 30.2 °F 20% 30.05 in 10.0 mi Variable 3.5 mph - N/A   Clear
12:15 PM 73.4 °F 28.4 °F 19% 30.05 in 10.0 mi ENE 8.1 mph - N/A   Clear
12:35 PM 75.2 °F 26.6 °F 17% 30.04 in 10.0 mi NE 9.2 mph - N/A   Clear
12:55 PM 75.2 °F 24.8 °F 15% 30.04 in 10.0 mi NNW 10.4 mph 17.3 mph N/A   Partly Cloudy
1:15 PM 75.2 °F 24.8 °F 15% 30.03 in 10.0 mi Variable 4.6 mph 15.0 mph N/A   Clear
1:35 PM 75.2 °F 24.8 °F 15% 30.02 in 10.0 mi Variable 3.5 mph - N/A   Clear
1:55 PM 75.2 °F 23.0 °F 14% 30.01 in 10.0 mi Variable 6.9 mph 12.7 mph N/A   Clear
2:15 PM 77.0 °F 24.8 °F 14% 30.01 in 10.0 mi NNW 9.2 mph 16.1 mph N/A   Clear
2:35 PM 77.0 °F 24.8 °F 14% 30.00 in 10.0 mi NNW 12.7 mph 23.0 mph N/A   Clear
2:55 PM 77.0 °F 24.8 °F 14% 30.00 in 10.0 mi NW 12.7 mph 19.6 mph N/A   Clear
3:15 PM 77.0 °F 24.8 °F 14% 30.00 in 10.0 mi North 10.4 mph - N/A   Clear
3:35 PM 77.0 °F 21.2 °F 12% 30.00 in 10.0 mi NW 12.7 mph 19.6 mph N/A   Clear
3:55 PM 77.0 °F 21.2 °F 12% 30.00 in 10.0 mi North 8.1 mph 24.2 mph N/A   Clear
4:15 PM 75.2 °F 21.2 °F 13% 30.00 in 10.0 mi North 12.7 mph - N/A   Clear
4:35 PM 75.2 °F 21.2 °F 13% 30.00 in 10.0 mi NNW 9.2 mph - N/A   Clear
4:55 PM 77.0 °F 23.0 °F 13% 30.00 in 10.0 mi North 15.0 mph - N/A   Partly Cloudy
5:15 PM 75.2 °F 23.0 °F 14% 30.00 in 10.0 mi NNE 11.5 mph - N/A   Partly Cloudy
5:35 PM 75.2 °F 21.2 °F 13% 30.00 in 10.0 mi NNE 13.8 mph - N/A   Clear
5:55 PM 75.2 °F 21.2 °F 13% 30.01 in 10.0 mi NNE 12.7 mph - N/A   Clear
6:15 PM 73.4 °F 19.4 °F 13% 30.02 in 10.0 mi NE 12.7 mph 19.6 mph N/A   Clear
6:35 PM 71.6 °F 21.2 °F 15% 30.03 in 10.0 mi NE 12.7 mph - N/A   Clear
6:55 PM 69.8 °F 21.2 °F 16% 30.03 in 10.0 mi NE 10.4 mph - N/A   Clear
7:15 PM 69.8 °F 21.2 °F 16% 30.04 in 10.0 mi NNE 10.4 mph - N/A   Clear
7:35 PM 68.0 °F 23.0 °F 18% 30.05 in 10.0 mi NE 8.1 mph - N/A   Clear
7:55 PM 66.2 °F 23.0 °F 19% 30.05 in 10.0 mi NNE 8.1 mph - N/A   Clear
8:15 PM 64.4 °F 23.0 °F 21% 30.06 in 10.0 mi NNE 9.2 mph - N/A   Clear
8:35 PM 66.2 °F 23.0 °F 19% 30.07 in 10.0 mi NNE 13.8 mph - N/A   Clear
8:55 PM 66.2 °F 24.8 °F 21% 30.09 in 10.0 mi NE 13.8 mph - N/A   Clear
9:15 PM 66.2 °F 24.8 °F 21% 30.10 in 10.0 mi ENE 12.7 mph - N/A   Clear
9:35 PM 66.2 °F 24.8 °F 21% 30.11 in 10.0 mi ENE 11.5 mph 17.3 mph N/A   Scattered Clouds
9:55 PM 66.2 °F 28.4 °F 24% 30.12 in 10.0 mi East 8.1 mph - N/A   Scattered Clouds
10:15 PM 66.2 °F 33.8 °F 30% 30.12 in 10.0 mi East 8.1 mph - N/A   Clear
10:35 PM 64.4 °F 33.8 °F 32% 30.12 in 10.0 mi East 13.8 mph - N/A   Clear
10:55 PM 64.4 °F 33.8 °F 32% 30.13 in 10.0 mi East 15.0 mph - N/A   Clear
11:15 PM 64.4 °F 33.8 °F 32% 30.14 in 10.0 mi East 6.9 mph 16.1 mph N/A   Clear
11:35 PM 64.4 °F 33.8 °F 32% 30.14 in 10.0 mi ENE 12.7 mph 18.4 mph N/A   Clear
11:55 PM 64.4 °F 33.8 °F 32% 30.16 in 10.0 mi ENE 12.7 mph 23.0 mph N/A   Clear